�N����,����,����,����,����,�C��,���x,�~����,�S�V����,�ő�u�ԕ���,,,,,
,,,,,,,,,����,����,����,�N��,,
yyyy/mm/dd,hh:mm:ss,(16),16����,m/s,��,%,mm,KW/�u,(16),16����,m/s,Time,,
2020/9/1,1:00:00,14,�k��,1.6,12.9,99.7,0.5,0,14,�k��,2.9,46,,
2020/9/1,2:00:00,14,�k��,1.7,12.6,99.6,0,0,14,�k��,3.3,56,,
2020/9/1,3:00:00,14,�k��,2.5,12.5,99.9,0.5,0,13,���k��,4.8,8,,
2020/9/1,4:00:00,14,�k��,2.3,12.5,100,0.5,0,14,�k��,4.6,31,,
2020/9/1,5:00:00,14,�k��,2.3,12.5,100,1,0,13,���k��,4.3,2,,
2020/9/1,6:00:00,14,�k��,2.5,12.6,100,0.5,0.01,14,�k��,5.4,35,,
2020/9/1,7:00:00,14,�k��,2.7,13,100,1,0.03,14,�k��,4.9,32,,
2020/9/1,8:00:00,14,�k��,2.6,13.4,100,1,0.05,15,�k�k��,5.2,49,,
2020/9/1,9:00:00,14,�k��,2.5,13.7,99.4,0.5,0.08,14,�k��,5,21,,
2020/9/1,10:00:00,14,�k��,2.7,14.4,98.6,0,0.14,14,�k��,4.9,18,,
2020/9/1,11:00:00,16,�k,1.7,15.7,95.1,0,0.22,14,�k��,4,30,,
2020/9/1,12:00:00,16,�k,1.3,16.2,96.7,0,0.15,16,�k,2.9,0,,
2020/9/1,13:00:00,13,���k��,1.8,15.7,98.8,0.5,0.12,11,���쐼,4.1,24,,
2020/9/1,14:00:00,14,�k��,1.9,16.6,98.1,0,0.18,14,�k��,3,52,,
2020/9/1,15:00:00,14,�k��,1.6,17,94.7,0,0.26,14,�k��,3.6,10,,
2020/9/1,16:00:00,14,�k��,0.5,17.3,94,0,0.19,14,�k��,2.3,5,,
2020/9/1,17:00:00,14,�k��,0.8,17.1,94.8,0,0.05,13,���k��,1.6,43,,
2020/9/1,18:00:00,14,�k��,0.9,16.4,98.3,0,0.01,13,���k��,1.4,47,,
2020/9/1,19:00:00,13,���k��,0.4,16.1,99.4,0,0,14,�k��,1.1,35,,
2020/9/1,20:00:00,16,�É�,0,14.1,99.7,0,0,12,��,0.6,37,,
2020/9/1,21:00:00,13,���k��,0.9,13.4,100,0,0,13,���k��,1.4,24,,
2020/9/1,22:00:00,13,���k��,0.7,12.3,100,0,0,13,���k��,1.5,15,,
2020/9/1,23:00:00,13,���k��,0.5,13.2,100,0,0,13,���k��,1.5,41,,
2020/9/1,0:00:00,13,���k��,0.8,13.1,100,0,0,13,���k��,1.6,24,,
2020/9/2,1:00:00,12,��,1.6,13.8,100,0,0,13,���k��,2.1,55,,
2020/9/2,2:00:00,13,���k��,1,13.8,100,0,0,13,���k��,2,25,,
2020/9/2,3:00:00,14,�k��,0.5,13.7,100,0,0,15,�k�k��,1.1,22,,
2020/9/2,4:00:00,15,�k�k��,0.7,14.2,100,0,0,15,�k�k��,1.5,30,,
2020/9/2,5:00:00,13,���k��,0.8,14.5,100,0,0,14,�k��,1.5,59,,
2020/9/2,6:00:00,16,�É�,0.2,15,100,0,0.03,14,�k��,1.5,39,,
2020/9/2,7:00:00,14,�k��,0.8,15.7,100,0,0.09,14,�k��,2.4,35,,
2020/9/2,8:00:00,15,�k�k��,1.2,17,98.3,0,0.21,15,�k�k��,2.4,58,,
2020/9/2,9:00:00,2,�k��,1.2,17.9,92.1,0,0.36,3,���k��,2.9,35,,
2020/9/2,10:00:00,3,���k��,0.5,19,91.6,0,0.36,3,���k��,2.9,13,,
2020/9/2,11:00:00,4,��,2.2,20.8,88.5,0,0.44,4,��,3.6,50,,
2020/9/2,12:00:00,4,��,3.8,21.7,84,0,0.75,5,���쓌,6.1,59,,
2020/9/2,13:00:00,4,��,3.9,21.7,82.9,0,0.85,4,��,6.5,25,,
2020/9/2,14:00:00,3,���k��,3.9,20,87.7,0,0.64,4,��,7.2,37,,
2020/9/2,15:00:00,3,���k��,3.2,20,93.3,0,0.33,4,��,5.9,24,,
2020/9/2,16:00:00,4,��,2.9,19.5,95.8,0,0.13,3,���k��,4.9,4,,
2020/9/2,17:00:00,5,���쓌,1.8,19.6,97.9,0,0.04,4,��,3.5,17,,
2020/9/2,18:00:00,6,�쓌,1.5,19.2,97.9,0,0.02,5,���쓌,3.2,0,,
2020/9/2,19:00:00,7,��쓌,1.2,19.2,98.3,0,0,6,�쓌,2.6,4,,
2020/9/2,20:00:00,5,���쓌,0.7,19.2,98.4,0,0,7,��쓌,2.1,1,,
2020/9/2,21:00:00,5,���쓌,1.1,19.2,98.5,0,0,4,��,2,44,,
2020/9/2,22:00:00,5,���쓌,1,19,98.7,0,0,5,���쓌,1.9,38,,
2020/9/2,23:00:00,5,���쓌,1.1,19,98.5,0,0,5,���쓌,1.8,29,,
2020/9/2,0:00:00,4,��,0.3,19,98.6,0,0,5,���쓌,1.5,1,,
2020/9/3,1:00:00,5,���쓌,0.9,18.9,98.6,0,0,5,���쓌,1.4,49,,
2020/9/3,2:00:00,4,��,0.8,18.8,98.8,0,0,4,��,1.6,38,,
2020/9/3,3:00:00,5,���쓌,1.1,18.8,98.8,0,0,7,��쓌,2.2,33,,
2020/9/3,4:00:00,4,��,1.4,18.8,99.2,0,0,5,���쓌,2,27,,
2020/9/3,5:00:00,4,��,1.5,18.7,99.4,0,0,4,��,2.3,52,,
2020/9/3,6:00:00,3,���k��,1.5,18.8,99.9,0,0.02,4,��,2.4,49,,
2020/9/3,7:00:00,3,���k��,1.8,19.2,100,0,0.04,3,���k��,2.5,53,,
2020/9/3,8:00:00,4,��,2.1,19.2,100,0.5,0.08,3,���k��,2.9,46,,
2020/9/3,9:00:00,2,�k��,1.8,19.5,100,0,0.18,3,���k��,3.4,2,,
2020/9/3,10:00:00,2,�k��,2.4,19.7,100,0.5,0.14,2,�k��,3.1,57,,
2020/9/3,11:00:00,3,���k��,2.2,20,100,1,0.14,2,�k��,3.2,9,,
2020/9/3,12:00:00,4,��,1.7,20,100,0,0.13,3,���k��,3.3,2,,
2020/9/3,13:00:00,4,��,1.4,20.5,99.8,0.5,0.13,5,���쓌,2.2,56,,
2020/9/3,14:00:00,6,�쓌,1.9,20.4,98,0,0.15,6,�쓌,2.8,52,,
2020/9/3,15:00:00,5,���쓌,1.9,20.6,97.2,0,0.14,5,���쓌,3,48,,
2020/9/3,16:00:00,6,�쓌,0.9,20.5,97.4,0,0.08,5,���쓌,2.9,0,,
2020/9/3,17:00:00,6,�쓌,0.5,20.4,97.4,0,0.04,5,���쓌,2.2,11,,
2020/9/3,18:00:00,3,���k��,1.3,19.9,98.5,0,0.01,3,���k��,1.9,55,,
2020/9/3,19:00:00,3,���k��,2,19.5,98.9,0,0,3,���k��,3,33,,
2020/9/3,20:00:00,3,���k��,1.2,19.3,99,0,0,3,���k��,2.9,26,,
2020/9/3,21:00:00,2,�k��,1,19.2,99.4,0,0,2,�k��,2.6,8,,
2020/9/3,22:00:00,2,�k��,1.3,18.9,99.8,0,0,3,���k��,3.3,18,,
2020/9/3,23:00:00,2,�k��,2.3,19,100,0,0,3,���k��,3.7,38,,
2020/9/3,0:00:00,3,���k��,3.1,18.8,100,0.5,0,3,���k��,4.7,42,,
2020/9/4,1:00:00,3,���k��,2.2,18.8,100,0,0,3,���k��,4.8,4,,
2020/9/4,2:00:00,3,���k��,2.6,18.7,100,0,0,3,���k��,4.9,50,,
2020/9/4,3:00:00,3,���k��,2.5,18.7,100,0.5,0,3,���k��,4.4,7,,
2020/9/4,4:00:00,2,�k��,1.7,18.7,100,0.5,0,3,���k��,4,9,,
2020/9/4,5:00:00,1,�k�k��,1.1,18.8,100,0.5,0,2,�k��,2.6,0,,
2020/9/4,6:00:00,14,�k��,0.9,19.2,100,0,0.02,14,�k��,1.4,0,,
2020/9/4,7:00:00,16,�k,1.1,19.5,100,0.5,0.08,15,�k�k��,2,59,,
2020/9/4,8:00:00,1,�k�k��,1.3,20.2,99.9,0,0.13,1,�k�k��,2.4,36,,
2020/9/4,9:00:00,1,�k�k��,1.4,20.7,98.3,0,0.23,1,�k�k��,2.4,49,,
2020/9/4,10:00:00,2,�k��,0.9,20.7,98,0,0.2,14,�k��,2.5,4,,
2020/9/4,11:00:00,4,��,2.5,20.8,98.9,0,0.24,4,��,3.6,59,,
2020/9/4,12:00:00,3,���k��,3.4,20.9,98.1,0.5,0.31,4,��,4.8,54,,
2020/9/4,13:00:00,4,��,2.9,21.4,96.4,0,0.37,4,��,4.6,3,,
2020/9/4,14:00:00,3,���k��,3.2,21,97.9,0,0.24,4,��,5,27,,
2020/9/4,15:00:00,3,���k��,2.5,20.3,98.2,0,0.19,3,���k��,5.3,13,,
2020/9/4,16:00:00,3,���k��,1.7,20.6,99.1,0,0.12,3,���k��,3.4,7,,
2020/9/4,17:00:00,3,���k��,1.1,20.1,99.2,0,0.06,4,��,2.6,16,,
2020/9/4,18:00:00,3,���k��,1,20,99.6,0,0,1,�k�k��,1.7,14,,
2020/9/4,19:00:00,2,�k��,1.2,19.7,99.9,0,0,3,���k��,2.5,33,,
2020/9/4,20:00:00,2,�k��,0.8,19.7,100,0,0,3,���k��,2.1,15,,
2020/9/4,21:00:00,16,�k,0.6,19.8,100,0,0,16,�k,1.1,52,,
2020/9/4,22:00:00,3,���k��,1,19.8,100,0,0,3,���k��,1.3,57,,
2020/9/4,23:00:00,3,���k��,0.8,19.7,100,0,0,2,�k��,1.9,13,,
2020/9/4,0:00:00,3,���k��,1.4,19.5,100,0,0,4,��,2.4,29,,
2020/9/5,1:00:00,3,���k��,1.7,19.3,100,0,0,3,���k��,2.7,46,,
2020/9/5,2:00:00,16,�É�,0.2,19.4,100,0.5,0,3,���k��,2,14,,
2020/9/5,3:00:00,2,�k��,0.5,19.5,100,0,0,1,�k�k��,1,48,,
2020/9/5,4:00:00,16,�É�,0.2,19.4,100,0.5,0,3,���k��,2.4,19,,
2020/9/5,5:00:00,16,�É�,0,19.5,100,0,0,5,���쓌,1.7,24,,
2020/9/5,6:00:00,5,���쓌,0.8,19.7,100,0,0.02,5,���쓌,1.3,59,,
2020/9/5,7:00:00,6,�쓌,1.3,19.9,100,0.5,0.08,6,�쓌,2.8,41,,
2020/9/5,8:00:00,5,���쓌,1.9,20.1,100,0,0.08,5,���쓌,2.7,32,,
2020/9/5,9:00:00,5,���쓌,2,20.2,100,0,0.14,5,���쓌,3,29,,
2020/9/5,10:00:00,5,���쓌,2.2,20.4,100,0,0.25,5,���쓌,3,47,,
2020/9/5,11:00:00,6,�쓌,2.4,21,99.6,0,0.4,6,�쓌,3.9,43,,
2020/9/5,12:00:00,6,�쓌,2.4,21.3,95.5,0,0.47,5,���쓌,4.4,29,,
2020/9/5,13:00:00,6,�쓌,2.5,21.5,92.5,0,0.42,5,���쓌,3.9,30,,
2020/9/5,14:00:00,6,�쓌,2.1,22.5,90.5,0,0.47,5,���쓌,4.2,6,,
2020/9/5,15:00:00,7,��쓌,1.7,21.5,88.7,0,0.47,6,�쓌,3.5,4,,
2020/9/5,16:00:00,6,�쓌,1.5,20.7,93.2,0,0.25,8,��,3.6,2,,
2020/9/5,17:00:00,6,�쓌,1.8,20.1,96.2,0,0.08,6,�쓌,2.8,46,,
2020/9/5,18:00:00,5,���쓌,1.3,19.4,99.3,0,0.02,5,���쓌,2.6,13,,
2020/9/5,19:00:00,7,��쓌,0.9,18.9,100,0,0,6,�쓌,1.9,7,,
2020/9/5,20:00:00,9,��쐼,0.6,18.6,100,0,0,7,��쓌,1.8,21,,
2020/9/5,21:00:00,9,��쐼,0.8,18.6,100,0,0,9,��쐼,1.7,48,,
2020/9/5,22:00:00,6,�쓌,0.5,18.4,100,0,0,6,�쓌,1.4,59,,
2020/9/5,23:00:00,16,�É�,0.2,18.2,100,0,0,6,�쓌,1.5,18,,
2020/9/5,0:00:00,16,�É�,0.2,18.2,100,0,0,9,��쐼,0.8,9,,
2020/9/6,1:00:00,16,�É�,0,18.1,100,0,0,14,�k��,0.9,40,,
2020/9/6,2:00:00,16,�É�,0,18.1,100,0,0,16,�k,1.2,22,,
2020/9/6,3:00:00,16,�É�,0,18.1,100,0,0,3,���k��,1,19,,
2020/9/6,4:00:00,16,�É�,0,18.2,100,0,0,16,�k,0.6,33,,
2020/9/6,5:00:00,16,�É�,0,17.9,100,0,0,14,�k��,1.6,31,,
2020/9/6,6:00:00,16,�É�,0,18.3,100,0,0.03,15,�k�k��,0.9,43,,
2020/9/6,7:00:00,14,�k��,1.3,19.3,100,0,0.2,14,�k��,2,57,,
2020/9/6,8:00:00,3,���k��,1.2,20.4,100,0,0.19,3,���k��,2,58,,
2020/9/6,9:00:00,5,���쓌,2.6,20.6,96.2,0,0.4,4,��,3.8,59,,
2020/9/6,10:00:00,5,���쓌,2.5,21,92,0,0.37,4,��,4,45,,
2020/9/6,11:00:00,3,���k��,1.9,23,86.7,0,0.57,4,��,3.6,35,,
2020/9/6,12:00:00,5,���쓌,2.9,23.4,83.3,0,0.66,5,���쓌,4.5,43,,
2020/9/6,13:00:00,6,�쓌,2.8,22.4,82,0,0.81,5,���쓌,4.6,48,,
2020/9/6,14:00:00,5,���쓌,2.6,23.2,83,0,0.75,6,�쓌,4.4,10,,
2020/9/6,15:00:00,6,�쓌,2.1,22.1,87.4,0,0.6,5,���쓌,4.7,41,,
2020/9/6,16:00:00,5,���쓌,2.3,21.7,90.8,0,0.29,6,�쓌,4.2,14,,
2020/9/6,17:00:00,7,��쓌,1.6,21,94.6,0,0.12,5,���쓌,3.1,12,,
2020/9/6,18:00:00,7,��쓌,1.3,20,98.7,0,0.02,8,��,2.7,5,,
2020/9/6,19:00:00,6,�쓌,1.4,19.8,99.2,0,0,6,�쓌,1.8,59,,
2020/9/6,20:00:00,16,�É�,0,19.9,99.3,0,0,6,�쓌,2,34,,
2020/9/6,21:00:00,12,��,0.3,19.9,99.8,0,0,12,��,1,51,,
2020/9/6,22:00:00,16,�É�,0,20,100,0,0,10,�쐼,0.6,14,,
2020/9/6,23:00:00,15,�k�k��,0.9,19.8,100,0,0,15,�k�k��,2,52,,
2020/9/6,0:00:00,3,���k��,1.3,19.9,100,0,0,3,���k��,2.6,33,,
2020/9/7,1:00:00,14,�k��,0.6,19.9,100,0,0,4,��,1.6,13,,
2020/9/7,2:00:00,16,�É�,0,19.8,100,0,0,14,�k��,1.6,0,,
2020/9/7,3:00:00,14,�k��,1.4,19.8,100,0,0,14,�k��,2.4,42,,
2020/9/7,4:00:00,3,���k��,0.3,20,100,0,0,14,�k��,2.2,2,,
2020/9/7,5:00:00,2,�k��,0.7,20,100,0,0,3,���k��,1.3,59,,
2020/9/7,6:00:00,4,��,0.3,20.3,100,0,0.01,6,�쓌,1.5,48,,
2020/9/7,7:00:00,14,�k��,1.4,20.5,100,0,0.06,14,�k��,2.3,57,,
2020/9/7,8:00:00,1,�k�k��,1.2,21.3,100,0,0.14,1,�k�k��,2.3,59,,
2020/9/7,9:00:00,2,�k��,1.4,21.6,99.3,0,0.18,1,�k�k��,2.5,1,,
2020/9/7,10:00:00,2,�k��,0.7,22.4,97,0,0.26,1,�k�k��,2.3,47,,
2020/9/7,11:00:00,4,��,2.5,22.2,97.8,0,0.24,4,��,4,44,,
2020/9/7,12:00:00,4,��,2.8,23,96.3,0,0.26,4,��,3.7,56,,
2020/9/7,13:00:00,5,���쓌,2.1,22.8,94.7,0,0.37,4,��,3.9,30,,
2020/9/7,14:00:00,5,���쓌,1.6,22.3,96.7,0,0.23,4,��,3.1,17,,
2020/9/7,15:00:00,3,���k��,1.2,22.8,96.2,0,0.21,4,��,3.1,7,,
2020/9/7,16:00:00,3,���k��,1.7,22.2,97.8,0,0.15,4,��,2.8,33,,
2020/9/7,17:00:00,3,���k��,1.5,21.8,99.2,0,0.06,4,��,2.5,37,,
2020/9/7,18:00:00,3,���k��,0.9,21.7,99.8,0.5,0.01,3,���k��,2.1,10,,
2020/9/7,19:00:00,3,���k��,1.3,21.6,99.9,0,0,4,��,2.4,59,,
2020/9/7,20:00:00,3,���k��,0.8,21.6,100,0,0,4,��,2.7,4,,
2020/9/7,21:00:00,2,�k��,0.6,21.6,100,0,0,2,�k��,1.7,46,,
2020/9/7,22:00:00,16,�É�,0,21.6,100,0,0,2,�k��,2.2,3,,
2020/9/7,23:00:00,16,�É�,0,21.6,100,0,0,11,���쐼,1.2,35,,
2020/9/7,0:00:00,13,���k��,0.7,21.5,100,0,0,2,�k��,1.4,12,,
2020/9/8,1:00:00,8,��,0.3,21.4,100,0,0,10,�쐼,1.8,40,,
2020/9/8,2:00:00,16,�É�,0,21.3,100,0,0,11,���쐼,1,16,,
2020/9/8,3:00:00,15,�k�k��,0.6,21.1,100,0,0,13,���k��,1.4,50,,
2020/9/8,4:00:00,16,�É�,0,20.1,100,0,0,14,�k��,1.6,37,,
2020/9/8,5:00:00,16,�k,0.6,19.8,100,0,0,1,�k�k��,1.3,50,,
2020/9/8,6:00:00,13,���k��,1.5,20.3,100,0,0.02,13,���k��,2.4,51,,
2020/9/8,7:00:00,13,���k��,0.5,22.3,100,0,0.15,13,���k��,1.8,7,,
2020/9/8,8:00:00,13,���k��,0.8,23.3,88.5,0,0.4,13,���k��,2.2,53,,
2020/9/8,9:00:00,6,�쓌,1.5,26.2,85.2,0,0.6,6,�쓌,2.6,53,,
2020/9/8,10:00:00,7,��쓌,2.8,26.8,79.7,0,0.77,7,��쓌,4.7,52,,
2020/9/8,11:00:00,8,��,3,26.2,80.8,0,0.82,7,��쓌,4.5,21,,
2020/9/8,12:00:00,7,��쓌,2.5,26.9,79.1,0,0.78,7,��쓌,4.6,17,,
2020/9/8,13:00:00,7,��쓌,1.5,26.7,77.3,0,0.85,7,��쓌,4.2,26,,
2020/9/8,14:00:00,7,��쓌,1.8,25.7,81.4,0,0.74,8,��,2.8,9,,
2020/9/8,15:00:00,6,�쓌,1.6,25.3,85.6,0,0.59,5,���쓌,3,54,,
2020/9/8,16:00:00,4,��,2.3,25,85.5,0,0.39,4,��,3.2,44,,
2020/9/8,17:00:00,4,��,2.5,23.7,92,0,0.21,5,���쓌,4.4,26,,
2020/9/8,18:00:00,3,���k��,1.6,22.1,96.8,0,0.04,3,���k��,3.2,3,,
2020/9/8,19:00:00,2,�k��,1.3,21.6,98.5,0,0,2,�k��,3.1,40,,
2020/9/8,20:00:00,1,�k�k��,1.6,21.7,99,0,0,2,�k��,2.5,37,,
2020/9/8,21:00:00,1,�k�k��,1.1,21.7,99.4,0,0,16,�k,2.8,46,,
2020/9/8,22:00:00,2,�k��,1.8,21.5,99.7,0,0,2,�k��,3.2,50,,
2020/9/8,23:00:00,2,�k��,1.5,21.3,100,0,0,3,���k��,3.6,14,,
2020/9/8,0:00:00,3,���k��,2.1,21.2,100,0,0,3,���k��,3.4,47,,
2020/9/9,1:00:00,3,���k��,1.4,21.3,100,0,0,4,��,3.2,10,,
2020/9/9,2:00:00,2,�k��,2,21,100,0,0,4,��,3.9,15,,
2020/9/9,3:00:00,4,��,1.1,20.7,100,0.5,0,3,���k��,3,0,,
2020/9/9,4:00:00,16,�k,0.8,20.7,100,1.5,0,6,�쓌,2.4,10,,
2020/9/9,5:00:00,16,�É�,0.2,20.7,100,0,0,1,�k�k��,1.4,59,,
2020/9/9,6:00:00,2,�k��,0.5,20.8,100,0,0.01,3,���k��,1.3,41,,
2020/9/9,7:00:00,4,��,1.3,21,100,0,0.04,5,���쓌,1.9,56,,
2020/9/9,8:00:00,3,���k��,1.1,21.2,100,0,0.15,4,��,2.1,8,,
2020/9/9,9:00:00,5,���쓌,0.9,21.9,100,0,0.19,4,��,1.9,59,,
2020/9/9,10:00:00,5,���쓌,1.7,23.6,96.2,0,0.48,4,��,2.9,40,,
2020/9/9,11:00:00,5,���쓌,2.5,25.2,89.2,0,0.77,5,���쓌,4,54,,
2020/9/9,12:00:00,5,���쓌,3.1,23.3,87.3,0,0.84,4,��,4.4,42,,
2020/9/9,13:00:00,4,��,2.5,25.2,86.4,0,0.78,4,��,4.4,13,,
2020/9/9,14:00:00,6,�쓌,1.5,24.8,87.4,0,0.7,5,���쓌,3.9,54,,
2020/9/9,15:00:00,5,���쓌,1.8,25.9,85.6,0,0.57,5,���쓌,3.5,27,,
2020/9/9,16:00:00,8,��,1.6,24.6,84.6,0,0.4,7,��쓌,3.6,31,,
2020/9/9,17:00:00,7,��쓌,1.1,24.9,77.4,0,0.19,8,��,3.8,35,,
2020/9/9,18:00:00,10,�쐼,4,24.1,76.7,0,0.03,10,�쐼,6.6,48,,
2020/9/9,19:00:00,9,��쐼,1.1,22.5,81.7,0,0,10,�쐼,7.4,23,,
2020/9/9,20:00:00,11,���쐼,2.2,19.2,95.6,0,0,10,�쐼,3.4,52,,
2020/9/9,21:00:00,11,���쐼,1.5,18.3,96.6,0,0,10,�쐼,3.3,37,,
2020/9/9,22:00:00,12,��,2.5,19.4,96.9,0,0,10,�쐼,3.9,27,,
2020/9/9,23:00:00,12,��,2.5,18.6,97.4,0,0,13,���k��,3.7,14,,
2020/9/9,0:00:00,1,�k�k��,0.7,18.9,97.4,0,0,12,��,3.5,0,,
2020/9/10,1:00:00,12,��,1.8,19,98.6,0,0,13,���k��,3.4,59,,
2020/9/10,2:00:00,16,�k,0.7,18.5,97.7,0,0,13,���k��,3.7,6,,
2020/9/10,3:00:00,12,��,1.7,18.5,98.1,0,0,12,��,3.7,54,,
2020/9/10,4:00:00,13,���k��,1,18.4,97.7,0,0,13,���k��,2.6,32,,
2020/9/10,5:00:00,13,���k��,2.2,19,97.6,0,0,14,�k��,3.6,57,,
2020/9/10,6:00:00,12,��,2.5,19.3,97.2,0,0.02,12,��,3.5,54,,
2020/9/10,7:00:00,12,��,0.8,20.2,98.6,1,0.05,10,�쐼,2.5,0,,
2020/9/10,8:00:00,9,��쐼,0.5,21.4,95.8,0,0.13,7,��쓌,1.7,41,,
2020/9/10,9:00:00,15,�k�k��,0.9,23.1,90,0,0.27,3,���k��,2.2,46,,
2020/9/10,10:00:00,14,�k��,0.8,23.1,88.4,0,0.3,15,�k�k��,3.1,21,,
2020/9/10,11:00:00,4,��,1.5,23.2,92.3,0,0.12,4,��,2.2,54,,
2020/9/10,12:00:00,5,���쓌,1.4,22.2,94.7,0,0.13,5,���쓌,2.3,33,,
2020/9/10,13:00:00,6,�쓌,1.9,21.9,94.1,0.5,0.14,7,��쓌,2.7,50,,
2020/9/10,14:00:00,7,��쓌,1.6,21.7,94,0.5,0.15,7,��쓌,3.3,59,,
2020/9/10,15:00:00,6,�쓌,1.8,21.6,97,0.5,0.12,8,��,3.8,49,,
2020/9/10,16:00:00,11,���쐼,0.6,21.5,96.4,0,0.07,6,�쓌,1.9,0,,
2020/9/10,17:00:00,16,�k,0.5,21.4,98,0,0.04,3,���k��,1.6,37,,
2020/9/10,18:00:00,16,�k,0.4,20.6,98.3,0,0.02,14,�k��,2.1,34,,
2020/9/10,19:00:00,16,�É�,0.2,18.6,99.1,0,0,2,�k��,2.6,23,,
2020/9/10,20:00:00,1,�k�k��,0.4,18.9,100,0,0,14,�k��,1.7,37,,
2020/9/10,21:00:00,2,�k��,1.1,19.9,100,0,0,1,�k�k��,2.8,27,,
2020/9/10,22:00:00,16,�É�,0.2,19.9,100,0,0,2,�k��,2,5,,
2020/9/10,23:00:00,9,��쐼,1.6,19.3,100,0,0,9,��쐼,2.3,56,,
2020/9/10,0:00:00,16,�É�,0,18.1,100,0,0,10,�쐼,1.6,1,,
2020/9/11,1:00:00,13,���k��,1,18.2,100,0,0,13,���k��,1.5,55,,
2020/9/11,2:00:00,8,��,0.9,18.2,100,0,0,14,�k��,2,6,,
2020/9/11,3:00:00,1,�k�k��,1.4,18.3,100,0,0,1,�k�k��,2.3,59,,
2020/9/11,4:00:00,14,�k��,0.3,18.3,100,0,0,1,�k�k��,2,0,,
2020/9/11,5:00:00,13,���k��,1.2,17.4,100,0,0,13,���k��,2.7,17,,
2020/9/11,6:00:00,1,�k�k��,0.6,18.5,100,0,0.02,14,�k��,3.1,0,,
2020/9/11,7:00:00,13,���k��,0.4,18.7,100,0,0.05,13,���k��,1.6,34,,
2020/9/11,8:00:00,15,�k�k��,1.7,18.4,98.4,0,0.11,15,�k�k��,2.6,57,,
2020/9/11,9:00:00,15,�k�k��,1.5,18.8,92.9,0,0.16,16,�k,2.8,10,,
2020/9/11,10:00:00,15,�k�k��,1.3,19.6,88.8,0,0.24,15,�k�k��,3.6,49,,
2020/9/11,11:00:00,14,�k��,1.2,21.1,82.8,0,0.37,1,�k�k��,2.9,18,,
2020/9/11,12:00:00,14,�k��,1.4,20.6,82.3,0,0.29,14,�k��,3.2,40,,
2020/9/11,13:00:00,6,�쓌,2.5,20,86.1,0,0.2,5,���쓌,3.3,58,,
2020/9/11,14:00:00,6,�쓌,1.6,19.6,88.6,0,0.08,5,���쓌,3,5,,
2020/9/11,15:00:00,4,��,2.6,18,98.2,0,0.05,5,���쓌,4.4,39,,
2020/9/11,16:00:00,13,���k��,1.8,17.5,98.6,0.5,0.03,4,��,3.3,3,,
2020/9/11,17:00:00,2,�k��,1.4,16.8,98.3,3.5,0.01,3,���k��,4.1,48,,
2020/9/11,18:00:00,3,���k��,3.6,16.4,97.8,3,0,2,�k��,6.5,59,,
2020/9/11,19:00:00,2,�k��,3.5,16,93,0,0,3,���k��,8.3,32,,
2020/9/11,20:00:00,3,���k��,3.7,15.6,94.4,0,0,3,���k��,10,16,,
2020/9/11,21:00:00,1,�k�k��,2.9,14.4,98.9,1,0,3,���k��,7.1,1,,
2020/9/11,22:00:00,14,�k��,1.2,14.3,98.2,0,0,2,�k��,4.8,4,,
2020/9/11,23:00:00,16,�k,1.1,14.2,94,0,0,15,�k�k��,3.3,8,,
2020/9/11,0:00:00,15,�k�k��,1,14,94.7,0,0,16,�k,2.1,59,,
2020/9/12,1:00:00,15,�k�k��,0.7,13.7,95,0,0,15,�k�k��,2.6,44,,
2020/9/12,2:00:00,16,�k,1.9,13.5,95,0.5,0,16,�k,4,37,,
2020/9/12,3:00:00,14,�k��,1.2,13.4,97.1,0,0,3,���k��,3.1,5,,
2020/9/12,4:00:00,16,�k,1.2,13.6,93.4,0,0,14,�k��,2.6,14,,
2020/9/12,5:00:00,14,�k��,1.9,13.4,96.3,0,0,14,�k��,3.5,59,,
2020/9/12,6:00:00,14,�k��,1.7,13.7,95.5,0,0.02,16,�k,3.3,23,,
2020/9/12,7:00:00,15,�k�k��,1.3,14.4,91.3,0,0.07,15,�k�k��,3,18,,
2020/9/12,8:00:00,16,�k,1.7,14.9,88.9,0,0.15,15,�k�k��,3.8,33,,
2020/9/12,9:00:00,1,�k�k��,2.9,15.5,87.1,0,0.21,1,�k�k��,5.3,56,,
2020/9/12,10:00:00,1,�k�k��,2.5,15.1,88.1,0,0.21,1,�k�k��,5.1,16,,
2020/9/12,11:00:00,3,���k��,2.7,15,88.2,0,0.08,2,�k��,5.3,17,,
2020/9/12,12:00:00,3,���k��,4.1,14.9,85.5,0,0.1,4,��,7.3,42,,
2020/9/12,13:00:00,4,��,3.9,15.2,82.9,0,0.18,4,��,6.8,50,,
2020/9/12,14:00:00,4,��,3.4,15.2,81.5,0,0.13,3,���k��,5.6,3,,
2020/9/12,15:00:00,3,���k��,3.1,15,81.2,0,0.1,2,�k��,5.6,50,,
2020/9/12,16:00:00,3,���k��,2.5,14.9,81,0,0.07,3,���k��,4.9,49,,
2020/9/12,17:00:00,3,���k��,2.5,14.5,80.9,0,0.03,4,��,5.2,18,,
2020/9/12,18:00:00,4,��,3,14.3,74.7,0,0.01,3,���k��,5.3,2,,
2020/9/12,19:00:00,3,���k��,1.7,13.6,78.2,0,0,5,���쓌,4.8,19,,
2020/9/12,20:00:00,14,�k��,1.1,12.6,96.4,0,0,14,�k��,2.8,42,,
2020/9/12,21:00:00,14,�k��,2.3,12.4,97.1,0.5,0,14,�k��,4.4,49,,
2020/9/12,22:00:00,15,�k�k��,1.6,11.7,93.3,1,0,14,�k��,3.4,2,,
2020/9/12,23:00:00,15,�k�k��,1.3,11.2,97.5,0.5,0,15,�k�k��,4.2,30,,
2020/9/12,0:00:00,15,�k�k��,1.4,11.3,97.9,0.5,0,14,�k��,3.8,47,,
2020/9/13,1:00:00,14,�k��,2.2,11.2,97.4,0.5,0,15,�k�k��,4.8,54,,
2020/9/13,2:00:00,15,�k�k��,1.8,11.2,97.1,0.5,0,14,�k��,4.1,38,,
2020/9/13,3:00:00,14,�k��,2.8,11,97.6,1,0,14,�k��,6.2,29,,
2020/9/13,4:00:00,15,�k�k��,2.4,10.7,98.3,1,0,13,���k��,6,40,,
2020/9/13,5:00:00,14,�k��,3.3,10.8,98,0.5,0,14,�k��,6.2,51,,
2020/9/13,6:00:00,15,�k�k��,2.7,10.8,96.9,0,0,14,�k��,6.7,18,,
2020/9/13,7:00:00,15,�k�k��,2.5,11.1,97.2,1.5,0.03,14,�k��,6.4,34,,
2020/9/13,8:00:00,14,�k��,3.8,11.2,98.2,1,0.05,14,�k��,7.4,35,,
2020/9/13,9:00:00,14,�k��,3.1,12,98,0,0.07,14,�k��,5.5,2,,
2020/9/13,10:00:00,15,�k�k��,2,13.1,97,1,0.14,1,�k�k��,6.3,28,,
2020/9/13,11:00:00,16,�k,2.5,13.7,93.8,0.5,0.21,14,�k��,5.2,11,,
2020/9/13,12:00:00,16,�k,3.1,14,94.6,0,0.14,16,�k,6.7,49,,
2020/9/13,13:00:00,16,�k,2.2,13.7,94.3,0,0.14,16,�k,7.2,17,,
2020/9/13,14:00:00,16,�k,3,14.3,91.9,0,0.22,16,�k,5.4,54,,
2020/9/13,15:00:00,14,�k��,2,13.8,93.8,0,0.18,1,�k�k��,5.8,9,,
2020/9/13,16:00:00,15,�k�k��,1.8,14.1,92.7,0,0.07,15,�k�k��,5.3,5,,
2020/9/13,17:00:00,15,�k�k��,0.6,14,93.2,0,0.04,16,�k,2.4,14,,
2020/9/13,18:00:00,14,�k��,0.8,13.6,95.2,0,0.01,13,���k��,3.2,42,,
2020/9/13,19:00:00,14,�k��,1,13.4,95.7,0,0,14,�k��,3,27,,
2020/9/13,20:00:00,14,�k��,1.1,13.2,95.5,0,0,15,�k�k��,2.9,38,,
2020/9/13,21:00:00,14,�k��,0.9,13,94.4,0,0,13,���k��,3,18,,
2020/9/13,22:00:00,16,�k,1.3,12.6,91.7,0,0,1,�k�k��,3.3,59,,
2020/9/13,23:00:00,2,�k��,1.5,12,90.9,0,0,16,�k,3.5,15,,
2020/9/13,0:00:00,15,�k�k��,1.1,11.7,90.9,0,0,2,�k��,4,12,,
2020/9/14,1:00:00,15,�k�k��,1.1,11.3,91.9,0,0,1,�k�k��,3.4,50,,
2020/9/14,2:00:00,14,�k��,1.6,11,93.5,0,0,14,�k��,3.4,43,,
2020/9/14,3:00:00,14,�k��,1.9,11.3,92.2,0,0,14,�k��,3.3,57,,
2020/9/14,4:00:00,14,�k��,2,11.1,94.2,0,0,14,�k��,3.6,49,,
2020/9/14,5:00:00,14,�k��,2.5,11.2,92.6,0,0,15,�k�k��,4,59,,
2020/9/14,6:00:00,14,�k��,2.3,11.7,89.3,0,0.01,14,�k��,3.8,57,,
2020/9/14,7:00:00,15,�k�k��,1.2,12,88.7,0,0.05,15,�k�k��,3.8,8,,
2020/9/14,8:00:00,14,�k��,1.8,12.6,90.2,0,0.1,1,�k�k��,3.5,26,,
2020/9/14,9:00:00,16,�k,1.5,12.7,93.7,0.5,0.08,15,�k�k��,3.5,30,,
2020/9/14,10:00:00,16,�k,2.5,13.3,92,0,0.15,16,�k,4.3,57,,
2020/9/14,11:00:00,13,���k��,2.2,12.9,96.2,0.5,0.08,13,���k��,5.5,36,,
2020/9/14,12:00:00,1,�k�k��,2.6,13.3,96.9,0.5,0.08,1,�k�k��,4.4,55,,
2020/9/14,13:00:00,12,��,0.8,13.5,97.5,0,0.09,13,���k��,4.1,46,,
2020/9/14,14:00:00,14,�k��,2.9,13.5,95.4,0,0.05,13,���k��,6.8,42,,
2020/9/14,15:00:00,14,�k��,2,13.7,95.3,0,0.07,15,�k�k��,5.6,19,,
2020/9/14,16:00:00,15,�k�k��,0.9,13.9,96.1,0,0.05,13,���k��,4,33,,
2020/9/14,17:00:00,13,���k��,2.2,14.2,95.2,0,0.06,14,�k��,3.5,48,,
2020/9/14,18:00:00,14,�k��,1.8,13.6,96.7,0,0.02,14,�k��,3.9,18,,
2020/9/14,19:00:00,14,�k��,1.5,13.3,97.6,0,0,14,�k��,3.7,55,,
2020/9/14,20:00:00,14,�k��,2.5,13.4,96.9,0,0,14,�k��,4.2,45,,
2020/9/14,21:00:00,14,�k��,2.3,13.3,97.3,0,0,14,�k��,3.9,4,,
2020/9/14,22:00:00,14,�k��,2.4,13.6,95.8,0,0,13,���k��,3.8,15,,
2020/9/14,23:00:00,14,�k��,2.1,13.3,97.9,0,0,14,�k��,3.3,51,,
2020/9/14,0:00:00,14,�k��,2.2,13.3,97.8,0,0,15,�k�k��,4.2,2,,
2020/9/15,1:00:00,14,�k��,1.7,13.4,98.2,0,0,14,�k��,3.3,43,,
2020/9/15,2:00:00,14,�k��,1.3,13.4,98.4,0,0,15,�k�k��,2.7,7,,
2020/9/15,3:00:00,14,�k��,1.4,13.3,98.4,0,0,14,�k��,2.5,17,,
2020/9/15,4:00:00,15,�k�k��,0.9,13.3,96.4,0,0,15,�k�k��,2.5,14,,
2020/9/15,5:00:00,15,�k�k��,0.7,13.3,96.2,0,0,16,�k,2.3,35,,
2020/9/15,6:00:00,16,�k,0.9,13.6,95.2,0,0.03,16,�k,2.1,39,,
2020/9/15,7:00:00,16,�k,0.8,14.2,94.9,0,0.06,1,�k�k��,2.2,3,,
2020/9/15,8:00:00,16,�k,0.9,14.7,91.3,0,0.11,16,�k,2.4,43,,
2020/9/15,9:00:00,14,�k��,0.7,15,89.6,0,0.14,14,�k��,2.2,48,,
2020/9/15,10:00:00,3,���k��,1,17.1,85.9,0,0.45,2,�k��,3.5,37,,
2020/9/15,11:00:00,4,��,2.1,18.1,88.5,0,0.33,4,��,4,48,,
2020/9/15,12:00:00,4,��,2.3,17.9,84,0,0.42,5,���쓌,4,53,,
2020/9/15,13:00:00,4,��,2.2,17.8,86,0,0.4,4,��,3.7,31,,
2020/9/15,14:00:00,5,���쓌,1.8,18.4,82.9,0,0.39,4,��,4.2,31,,
2020/9/15,15:00:00,5,���쓌,1.9,18,79.8,0,0.29,5,���쓌,3.8,47,,
2020/9/15,16:00:00,6,�쓌,0.8,17.6,85.5,0,0.13,6,�쓌,2.5,2,,
2020/9/15,17:00:00,5,���쓌,0.7,17.2,88.6,0,0.06,5,���쓌,1.6,32,,
2020/9/15,18:00:00,1,�k�k��,0.5,14.8,96.2,0,0.01,16,�k,0.9,0,,
2020/9/15,19:00:00,13,���k��,0.4,15.2,99.5,0,0,13,���k��,1.8,29,,
2020/9/15,20:00:00,13,���k��,1,15.4,99.2,0,0,13,���k��,1.7,49,,
2020/9/15,21:00:00,12,��,1.3,15.3,98.5,0,0,14,�k��,1.8,2,,
2020/9/15,22:00:00,13,���k��,1.5,15.1,99.2,0,0,13,���k��,2.4,35,,
2020/9/15,23:00:00,16,�É�,0.2,15.2,98.9,0,0,14,�k��,2.4,29,,
2020/9/15,0:00:00,13,���k��,1.5,15.2,98.8,0,0,12,��,2.5,47,,
2020/9/16,1:00:00,16,�É�,0,14.3,99.1,0,0,14,�k��,2.5,0,,
2020/9/16,2:00:00,13,���k��,0.6,15,99.9,0,0,13,���k��,2.1,8,,
2020/9/16,3:00:00,13,���k��,0.8,15.1,99.9,0,0,13,���k��,2.2,42,,
2020/9/16,4:00:00,13,���k��,1,15.5,100,0,0,12,��,2.8,43,,
2020/9/16,5:00:00,12,��,0.4,15.6,99.9,0,0,12,��,1.4,0,,
2020/9/16,6:00:00,13,���k��,1.2,15.9,99.9,0,0.01,12,��,2.1,46,,
2020/9/16,7:00:00,13,���k��,1.4,16.9,98.8,0,0.07,13,���k��,2.9,17,,
2020/9/16,8:00:00,14,�k��,0.8,17.8,96.9,0,0.11,14,�k��,2.8,24,,
2020/9/16,9:00:00,13,���k��,0.7,18.1,97.6,0.5,0.13,14,�k��,2.8,38,,
2020/9/16,10:00:00,13,���k��,0.7,19.4,95.2,0,0.23,11,���쐼,1.8,48,,
2020/9/16,11:00:00,7,��쓌,2,19.9,92,0,0.3,6,�쓌,3.5,32,,
2020/9/16,12:00:00,7,��쓌,2.7,21,86.6,0,0.48,8,��,4.7,40,,
2020/9/16,13:00:00,6,�쓌,2,20.9,89.3,0,0.5,6,�쓌,5.1,45,,
2020/9/16,14:00:00,6,�쓌,2.7,21,91,0,0.4,6,�쓌,5.6,4,,
2020/9/16,15:00:00,7,��쓌,3.1,21,90.4,0,0.35,6,�쓌,6.8,18,,
2020/9/16,16:00:00,7,��쓌,1.7,19.9,94.1,0,0.27,7,��쓌,5.8,5,,
2020/9/16,17:00:00,7,��쓌,1.6,18.9,96.1,0,0.11,8,��,4.6,0,,
2020/9/16,18:00:00,8,��,0.4,18.6,98.4,0,0.01,7,��쓌,2.6,2,,
2020/9/16,19:00:00,6,�쓌,1.1,18.8,98.2,0,0,7,��쓌,3.1,58,,
2020/9/16,20:00:00,7,��쓌,1.3,18.6,98.1,0,0,6,�쓌,3.9,31,,
2020/9/16,21:00:00,6,�쓌,1,18.1,98.5,0,0,7,��쓌,2.5,5,,
2020/9/16,22:00:00,16,�k,0.3,17.8,99.5,0,0,3,���k��,1.6,11,,
2020/9/16,23:00:00,15,�k�k��,0.9,17.9,99.1,0,0,14,�k��,2.1,21,,
2020/9/16,0:00:00,15,�k�k��,0.9,17.9,98.8,0,0,15,�k�k��,2.4,41,,
2020/9/17,1:00:00,16,�k,0.5,17.9,99.6,0.5,0,16,�k,1.9,48,,
2020/9/17,2:00:00,16,�k,0.9,17.7,99.8,0.5,0,15,�k�k��,3.3,43,,
2020/9/17,3:00:00,4,��,0.9,18.2,99.8,0,0,3,���k��,2.2,32,,